Theta_e
313 316 319 320 319 313 315 316 316 317 317 316 317 320 320 326 321 317 331 332 331 332 333 334 335 337 328 331 333 331 332 334 333 333 336 336 336 335 333 332 330 329 329 330 329 330 331 330 329
314 319 320 312 315 315 314 313 316 316 315 321 321 322 327 334 334 328 330 332 330 332 333 334 334 337 329 322 328 328 333 332 330 334 336 335 335 334 332 330 329 328 329 330 329 330 331 329 329
317 319 314 314 309 314 314 315 315 316 314 317 320 321 327 334 330 329 332 332 329 332 334 335 334 336 330 324 325 328 328 330 332 334 335 335 334 333 331 329 328 327 328 329 329 330 330 328 327
318 315 310 311 315 313 314 314 314 315 316 317 320 326 326 331 331 331 332 332 329 332 332 333 334 336 332 324 325 328 330 331 332 332 334 334 333 331 330 328 327 327 328 328 328 329 328 328 327
316 310 314 316 316 314 315 314 312 316 316 317 319 324 331 333 336 335 332 331 331 332 331 332 334 335 333 326 326 327 329 330 332 331 332 332 331 331 329 327 327 327 328 327 328 329 328 326 327
314 310 314 317 315 314 316 313 313 314 313 314 323 330 333 334 337 334 332 331 332 332 332 332 334 334 334 329 324 326 326 327 330 330 331 330 330 328 327 326 326 325 327 327 327 328 327 324 325
315 313 315 316 314 314 314 311 312 313 314 316 320 326 324 332 336 334 333 333 332 333 333 331 333 334 334 331 326 326 326 325 326 327 329 329 327 325 326 325 325 324 325 326 327 326 325 324 325
310 312 316 315 313 316 312 312 310 314 315 311 319 324 331 331 336 335 335 335 335 335 334 331 332 334 333 333 329 327 327 325 324 324 325 325 321 320 320 322 323 324 325 325 325 324 323 324 324
308 311 313 314 312 315 311 314 311 311 313 314 314 319 320 336 336 336 337 337 337 337 336 332 331 333 333 334 332 330 328 326 324 323 322 322 319 316 317 318 320 322 323 322 322 322 321 321 322
309 310 312 312 311 313 312 313 311 314 314 315 314 320 322 335 335 334 336 336 337 337 337 334 331 333 334 334 333 331 329 327 325 322 321 320 318 316 316 317 315 313 317 319 320 319 319 319 319
310 310 309 313 312 312 313 313 310 310 313 311 313 319 325 331 332 333 333 335 336 337 337 334 332 331 333 334 333 333 331 328 326 323 321 319 318 316 316 315 314 311 314 315 317 318 318 318 319
314 312 310 313 313 312 311 311 312 309 310 310 310 319 326 328 331 331 332 335 335 336 334 334 333 331 332 332 333 333 332 330 328 325 322 320 319 318 317 315 314 310 313 314 315 315 316 318 319
312 311 313 312 312 312 312 312 311 310 308 309 308 321 326 330 332 333 333 334 335 334 334 333 333 331 332 332 332 333 332 332 330 327 324 321 320 320 318 316 315 312 312 314 315 315 317 317 318
309 311 312 312 312 311 312 311 312 310 308 309 314 320 322 326 329 330 332 333 333 335 334 333 333 332 331 331 331 331 332 332 331 330 327 323 321 322 321 318 316 313 313 313 314 315 315 316 316
310 311 311 311 312 312 310 308 310 308 306 308 308 316 319 323 327 329 332 332 333 334 334 334 333 332 332 332 331 330 330 330 330 331 330 326 324 324 325 322 317 316 313 312 314 315 315 315 315
309 306 307 307 310 311 307 305 306 308 307 307 305 305 312 317 322 327 329 331 332 333 334 334 334 333 333 333 332 331 331 330 329 329 329 329 326 326 326 325 322 318 314 313 314 315 314 314 314
307 305 308 308 309 312 310 309 307 309 307 307 306 304 303 305 310 321 325 328 330 331 332 333 334 334 334 333 333 332 332 331 330 329 330 330 330 328 327 327 326 322 315 313 313 313 313 312 312
309 308 309 309 311 311 311 310 308 307 308 306 305 304 303 303 304 310 317 322 324 328 330 332 334 334 334 333 333 333 333 333 331 330 329 331 330 330 329 328 327 326 319 314 313 313 312 311 310
306 309 310 311 311 312 310 309 308 307 307 305 304 304 303 304 306 308 309 312 318 323 326 328 331 334 334 334 334 334 334 334 333 331 331 330 330 331 331 329 328 327 323 322 314 312 311 309 307
310 311 311 310 311 311 310 309 307 307 307 306 306 304 303 303 303 306 308 309 309 313 319 324 326 328 330 333 334 334 334 333 334 333 331 329 330 332 332 331 330 329 327 320 317 313 311 307 305
310 309 310 310 310 308 306 305 304 305 307 307 305 304 303 303 303 303 305 307 309 309 312 317 321 324 327 330 331 331 332 331 332 332 332 331 329 333 333 331 329 329 327 325 323 318 313 306 306
311 309 309 311 308 307 306 305 305 306 305 305 303 301 301 301 303 303 304 306 308 310 310 312 317 322 325 328 331 331 330 329 329 329 331 331 330 332 331 331 330 329 327 325 323 322 315 310 302
311 310 309 310 309 311 310 308 305 304 308 305 304 306 308 306 307 306 306 307 308 310 309 310 314 320 325 327 329 330 330 330 330 329 329 329 330 330 330 329 329 329 328 326 323 318 315 312 308
308 308 307 308 306 307 308 306 303 304 306 309 308 309 307 305 303 303 307 308 310 311 310 310 313 320 324 326 328 329 329 329 329 328 328 328 327 327 328 328 328 327 327 326 324 322 318 316 312
307 306 306 306 309 307 306 307 305 305 306 306 305 306 304 304 304 304 304 306 308 310 311 311 314 318 322 325 326 328 329 329 328 328 327 327 326 324 324 325 325 325 326 325 323 320 319 317 311
308 307 307 306 307 306 307 310 308 307 306 306 306 308 307 305 304 304 305 307 308 310 311 312 312 313 315 318 321 323 324 325 325 325 325 324 323 322 320 320 320 320 321 322 320 319 318 316 314
311 308 305 306 294 306 306 305 305 305 305 308 309 308 307 306 305 306 307 309 310 310 310 311 311 312 312 312 312 313 314 315 316 316 317 318 317 316 315 315 314 315 315 317 318 315 315 313 313
309 308 311 306 304 304 304 306 306 308 309 310 309 309 308 307 305 305 305 307 308 309 310 310 310 311 311 311 311 311 311 311 312 312 312 313 313 313 313 313 313 313 313 313 313 313 313 312 310
310 310 308 308 306 307 305 305 302 306 309 308 308 308 309 308 306 305 305 307 308 309 309 310 310 310 311 310 310 310 310 310 310 310 310 310 310 310 311 311 312 312 312 312 312 311 310 310 310
309 309 308 309 309 307 308 308 305 308 307 307 308 307 307 309 306 304 305 306 308 308 308 308 308 309 309 308 308 309 310 310 310 310 310 309 309 309 309 309 310 310 311 311 309 308 308 309 309
Wind_Speed
6 6 1 4 4 5 1 3 1 3 1 1 2 4 6 3 3 3 6 16 26 26 22 18 15 15 14 17 16 13 13 14 16 16 16 18 17 16 16 16 17 17 18 18 18 16 17 19 19
4 3 4 3 4 3 4 3 6 4 5 8 5 3 4 1 2 5 17 14 30 26 22 18 16 15 13 13 13 13 14 14 17 16 17 16 16 16 15 15 16 16 18 17 17 18 17 18 17
2 2 4 4 3 4 4 4 5 2 5 2 3 4 3 3 2 18 5 27 30 25 22 19 17 16 14 15 14 15 15 15 15 15 15 15 14 15 15 15 15 16 17 15 15 16 17 18 17
1 5 4 4 2 3 4 5 3 5 0 2 3 5 2 3 15 10 23 28 31 25 22 19 18 16 14 14 14 14 14 15 14 14 14 14 13 13 14 15 15 16 16 14 13 14 17 16 17
4 3 4 3 3 2 1 6 5 2 4 3 1 3 2 7 5 15 27 28 28 24 21 19 19 17 15 14 13 13 13 13 13 14 13 13 11 13 13 14 14 15 15 14 14 15 15 16 17
3 3 4 2 3 2 1 5 3 2 1 3 5 4 4 5 15 24 28 27 24 24 21 20 19 18 17 14 13 12 12 13 13 14 14 12 13 12 13 13 13 15 14 13 14 16 16 15 15
6 4 5 4 3 1 5 7 4 5 5 3 9 5 3 3 19 26 27 24 24 22 22 21 20 18 17 15 13 12 12 13 13 14 14 13 12 13 14 14 14 15 14 13 14 14 14 14 15
5 4 4 3 5 3 4 5 6 4 5 3 4 4 4 7 23 27 26 24 23 22 21 22 20 20 18 16 14 13 12 12 12 12 13 12 13 13 14 14 14 15 15 14 14 14 15 15 16
3 4 2 4 6 3 5 3 2 2 5 1 3 6 3 22 27 28 25 25 26 25 24 23 22 21 20 18 16 14 12 12 11 12 12 12 11 12 13 12 13 15 15 14 14 14 14 14 14
5 4 8 3 5 4 5 3 7 4 4 2 1 0 5 28 30 25 22 21 26 28 27 25 24 23 22 20 18 16 15 14 13 13 13 12 12 12 12 12 12 13 13 13 13 13 13 12 11
3 5 5 2 1 4 4 1 2 7 3 7 8 6 9 16 21 21 23 27 31 30 28 28 25 25 24 23 21 19 18 16 15 14 15 14 14 14 13 13 13 14 15 14 14 13 11 9 9
3 1 5 5 1 4 6 3 2 5 7 4 9 9 13 11 19 22 26 30 30 31 31 30 28 28 26 25 25 23 22 20 19 18 18 17 17 16 15 15 15 15 17 15 14 13 12 11 11
2 3 3 3 3 3 3 2 4 7 7 3 5 10 15 15 22 25 28 31 30 31 32 33 31 30 29 28 28 27 25 24 22 21 20 20 19 18 17 16 16 16 17 17 16 14 13 13 12
4 4 3 1 2 2 3 2 2 3 3 3 7 11 11 12 24 19 23 31 33 34 34 34 34 32 31 31 30 29 27 26 25 25 24 23 21 19 18 18 18 19 19 18 17 16 14 14 14
4 3 2 2 2 2 3 4 7 5 3 5 7 8 9 14 15 26 36 35 39 38 36 36 36 34 34 33 32 31 30 28 27 28 28 27 25 23 21 21 22 21 23 22 19 18 18 17 17
5 5 1 1 4 1 3 7 3 3 2 6 7 8 9 11 22 31 33 37 37 38 37 37 38 37 37 36 34 34 32 29 28 26 28 30 30 28 26 24 24 25 25 25 23 22 21 20 20
6 3 3 5 6 2 2 6 4 3 5 7 5 8 9 10 15 33 36 36 37 39 39 37 40 41 40 37 36 36 35 33 31 29 31 32 34 33 31 31 29 28 28 28 26 24 22 22 22
6 3 3 3 2 1 2 9 7 8 3 10 10 9 9 10 16 32 38 39 38 38 39 40 39 42 41 40 37 36 36 36 34 33 33 34 34 36 35 35 33 32 31 32 31 27 26 25 24
6 4 4 0 1 2 5 7 12 10 4 10 10 10 10 13 14 27 28 31 37 37 37 39 41 43 41 39 38 38 39 40 37 35 34 33 34 36 37 37 37 37 37 37 37 34 29 26 25
4 3 1 1 1 1 5 11 11 11 7 8 9 10 11 7 6 14 19 23 29 37 40 39 41 41 43 42 41 34 31 34 40 39 37 35 36 36 36 38 39 38 39 37 38 38 32 30 28
2 4 3 3 2 3 5 8 6 5 3 5 8 8 7 9 10 7 10 17 22 27 34 40 42 43 43 43 34 30 28 30 31 37 39 39 37 37 36 37 37 37 38 41 43 42 41 32 36
4 5 5 4 3 3 2 5 6 5 10 7 9 7 9 8 5 5 7 9 12 22 25 31 37 40 41 37 36 38 31 28 34 36 39 42 40 39 39 39 40 42 41 43 44 44 43 31 29
4 4 5 3 4 3 4 1 7 4 7 8 8 5 6 8 7 8 11 6 4 3 10 18 26 31 33 35 36 36 33 34 34 31 32 31 34 36 38 39 40 42 42 43 43 41 40 42 29
8 6 7 5 3 1 5 5 5 3 2 2 5 6 7 8 8 7 10 12 13 11 5 4 14 21 25 27 30 34 36 37 34 33 31 31 31 33 37 39 40 42 42 42 43 42 41 44 44
4 6 2 3 2 5 1 2 8 6 5 3 6 6 8 8 8 8 9 13 14 14 10 6 5 11 16 20 24 29 32 33 33 33 33 33 32 32 34 36 39 40 41 41 41 40 42 43 42
5 6 5 7 4 3 2 5 5 5 4 2 3 3 4 7 7 7 8 9 12 11 10 8 5 4 7 13 17 20 24 28 30 31 32 33 34 34 32 33 36 38 38 39 38 39 41 42 43
5 3 5 7 3 3 3 6 10 5 6 6 7 7 8 8 6 7 8 11 11 11 11 9 6 4 2 6 11 15 19 23 26 27 28 31 32 32 31 30 31 34 37 37 34 34 37 39 41
4 7 3 3 2 3 4 4 5 3 6 4 7 6 5 5 7 7 10 13 12 11 10 8 7 7 7 8 9 11 13 17 20 23 27 29 31 32 32 32 32 32 34 35 37 36 34 35 36
3 3 4 4 4 5 1 5 6 5 8 9 6 6 5 4 4 5 8 9 8 8 10 11 13 13 14 15 16 16 17 17 19 21 25 27 28 30 32 33 33 34 34 34 36 38 35 35 36
2 6 6 5 4 2 3 5 4 9 8 9 5 6 5 3 6 6 10 13 16 15 15 14 15 16 17 19 19 19 20 21 23 26 27 29 31 31 32 33 33 33 34 34 34 35 35 36 37
Wind_Direction
317 324 350 55 54 65 192 240 208 140 126 239 78 143 167 109 158 205 152 151 162 154 153 148 139 134 127 127 130 127 123 118 111 111 106 111 109 102 97 98 96 97 101 98 89 93 100 94 89
330 317 64 75 94 90 266 259 178 199 154 123 100 85 51 118 95 101 139 165 164 156 156 150 146 144 132 130 134 133 126 116 111 118 111 116 112 106 102 102 102 102 108 101 93 91 103 98 94
301 13 86 95 111 167 188 208 199 146 147 189 90 62 139 164 45 155 188 161 166 162 161 157 158 154 143 135 132 128 123 116 115 120 118 120 115 110 108 107 107 109 114 107 100 97 105 102 99
142 22 38 87 168 228 210 171 226 138 203 85 123 77 11 256 156 167 157 163 168 165 165 164 163 158 149 139 133 130 123 120 120 120 122 123 119 114 115 113 113 114 115 108 102 104 110 106 107
54 56 59 70 293 268 246 143 169 170 146 131 125 172 17 152 165 163 161 162 169 169 169 168 166 163 156 146 139 137 129 125 126 125 129 131 127 121 118 118 118 116 118 110 108 112 120 111 117
45 97 66 132 259 360 68 149 170 180 150 147 85 116 174 187 156 159 167 170 174 169 171 171 172 171 164 158 149 146 141 138 135 135 139 139 130 129 124 123 120 119 119 109 114 117 128 119 122
123 86 168 166 199 169 206 156 170 182 145 233 155 125 279 195 172 166 170 175 180 178 175 175 176 176 173 169 158 159 155 150 149 145 146 151 150 141 135 133 127 124 123 114 115 125 129 127 130
108 91 120 206 186 223 176 170 148 150 218 85 148 183 219 202 177 171 171 176 179 182 183 181 181 181 179 177 171 170 166 162 158 155 157 159 152 151 144 140 135 132 134 130 132 134 133 136 137
127 69 150 211 151 221 150 140 205 100 121 63 182 155 252 166 169 170 172 177 182 185 187 187 186 186 186 184 181 178 175 172 168 167 165 164 160 153 148 145 144 141 146 143 147 148 146 146 146
88 111 205 212 181 178 174 157 164 149 136 220 270 260 157 162 171 175 179 175 182 188 189 191 192 190 190 190 187 187 185 184 181 179 178 175 170 162 156 156 155 151 154 157 155 152 153 157 163
158 165 191 207 151 132 146 339 199 127 242 214 198 170 154 162 177 190 193 192 192 193 193 194 196 197 195 195 193 193 194 193 191 192 190 185 180 175 172 170 167 162 162 168 164 164 168 172 167
110 211 168 183 126 115 157 125 227 201 219 232 209 163 167 171 186 194 201 200 199 199 199 199 201 201 200 201 198 200 200 200 200 200 198 197 192 188 186 184 178 175 175 175 174 174 173 171 169
124 173 110 124 114 114 118 183 238 251 245 38 133 159 178 190 198 203 205 207 208 208 205 204 202 203 203 204 204 205 207 208 208 207 208 207 204 199 197 196 192 187 187 188 185 184 184 186 186
167 119 129 156 163 112 146 237 96 298 258 193 161 191 191 193 205 203 206 213 213 216 214 208 206 206 206 207 209 211 211 215 215 214 215 213 215 211 209 207 205 200 198 199 201 200 202 200 199
103 86 24 187 233 159 148 269 231 258 312 222 225 218 215 215 203 211 213 214 215 218 219 215 210 210 211 212 214 215 219 219 222 222 220 217 217 221 222 219 214 214 207 205 207 210 211 212 205
77 53 92 271 149 298 103 265 265 352 228 255 236 241 237 241 223 221 223 223 221 221 220 220 217 214 214 217 219 218 220 223 229 232 233 224 222 225 227 226 227 224 218 215 213 213 213 213 210
12 171 208 309 191 134 125 259 265 157 34 306 250 241 235 250 242 235 232 231 228 226 224 221 220 219 218 220 223 224 225 223 226 233 236 230 227 231 231 230 231 231 223 221 223 221 219 213 210
184 186 222 230 213 172 143 265 280 280 275 271 279 253 244 242 242 238 235 234 234 231 229 227 223 222 223 224 226 228 230 231 232 230 237 240 235 233 235 235 234 233 228 226 225 227 223 223 215
136 144 157 195 350 196 250 263 278 280 273 273 261 263 253 248 253 248 244 239 234 234 230 228 227 226 222 222 223 227 229 232 234 234 237 239 243 236 236 239 235 234 233 234 230 223 224 220 215
126 122 196 16 83 168 343 283 262 271 252 235 250 262 256 265 276 254 244 235 232 232 231 230 229 227 226 221 224 222 227 231 235 237 242 242 245 244 240 239 239 238 236 234 230 228 216 223 219
177 163 179 171 46 45 344 297 321 297 266 272 259 258 282 261 274 274 263 242 233 230 231 230 230 229 229 226 220 221 224 231 235 239 242 241 245 242 242 241 240 241 238 237 236 232 223 212 218
175 193 134 139 95 235 16 283 308 309 303 290 301 309 296 298 292 288 276 261 238 238 238 234 233 230 231 226 222 224 219 223 233 237 244 244 244 245 247 246 248 249 248 240 241 237 230 215 210
182 104 118 90 97 63 321 61 273 330 290 302 327 8 24 18 35 30 27 17 26 291 247 237 234 233 229 228 227 227 226 233 239 244 247 247 245 243 245 246 247 247 247 246 242 236 231 225 222
150 82 54 55 82 331 234 162 285 224 212 354 2 1 12 8 11 13 18 34 36 35 42 209 220 225 228 230 229 233 237 240 241 245 248 249 249 247 245 246 250 252 250 246 244 244 243 235 229
84 83 11 348 7 221 47 111 251 275 273 236 307 346 356 3 10 5 8 16 33 37 48 75 166 209 222 228 233 237 242 247 251 254 255 254 252 248 248 247 247 247 249 249 246 246 247 245 233
183 155 158 198 199 255 92 233 245 204 319 243 19 22 29 30 13 15 23 28 50 44 51 57 84 161 213 233 240 245 250 253 256 260 261 263 263 265 265 258 255 254 249 249 251 251 252 249 243
185 178 156 104 24 58 225 289 306 86 56 67 56 40 18 21 6 33 36 45 47 46 50 51 47 46 333 274 264 259 260 261 263 268 271 270 271 272 270 267 263 259 257 252 246 247 250 253 248
150 160 80 10 144 255 284 270 226 111 98 90 45 43 42 58 49 46 28 30 32 32 33 31 23 9 349 331 302 287 277 272 274 275 276 275 276 275 272 268 263 260 258 256 255 248 248 250 251
136 169 68 123 146 172 203 256 225 140 146 100 42 25 33 36 26 48 32 21 23 19 10 8 2 346 333 330 321 312 302 293 285 282 283 284 287 284 277 274 269 263 259 256 255 255 250 248 250
153 175 150 149 211 238 152 265 21 135 118 106 69 14 3 349 15 3 8 13 16 14 10 4 355 345 338 329 316 317 312 307 297 291 292 292 293 293 287 279 272 268 263 259 256 255 251 249 249